Location: Corcelles
(46.1547°N, 4.7234°E)
Time: 21:12:42
(UTC+00:00)

Cosmos 1536 - Pass Details

Date: 14 July 2020
Orbit: 539 x 559 km, 82.5° (Epoch: 14 August)

Event Time Altitude Azimuth Distance (km) Brightness Sun altitude
Exits shadow 02:02:34 25° 181° (S) 1,157 4.0 -15.6°
Maximum altitude 02:04:53 79° 97° (E) 574 2.9 -15.4°
Drops below altitude 10° 02:08:57 10° 11° (NNE) 1,849 6.6 -15.0°
Sets 02:11:08 0° 11° (N) 2,745 7.7 -14.8°
